Time,TemperatureF,DewpointF,PressureIn,WindDirection,WindDirectionDegrees,WindSpeedMPH,WindSpeedGustMPH,Humidity,HourlyPrecipIn,Conditions,Clouds,dailyrainin,SoftwareType,DateUTC
2013-02-17 00:03:00,25.2,19.0,29.72,NNE,26,3.0,13.0,77,0.00,-SN,,0.00,WeatherDisplay:10.37,2013-02-17 05:03:00,
2013-02-17 00:13:00,24.9,18.4,29.70,North,2,6.0,14.0,76,0.00,-SN,,0.00,WeatherDisplay:10.37,2013-02-17 05:13:00,
2013-02-17 00:23:00,24.6,17.8,29.69,North,9,5.0,14.0,75,0.00,-SN,,0.00,WeatherDisplay:10.37,2013-02-17 05:23:00,
2013-02-17 00:33:00,24.4,17.6,29.69,NNE,19,6.0,18.0,75,0.00,-SN,,0.00,WeatherDisplay:10.37,2013-02-17 05:33:00,
2013-02-17 00:43:00,23.8,17.6,29.69,North,11,6.0,15.0,77,0.00,-SN,,0.00,WeatherDisplay:10.37,2013-02-17 05:43:00,
2013-02-17 00:53:00,23.3,18.0,29.68,NNE,24,3.0,13.0,80,0.00,-SN,,0.00,WeatherDisplay:10.37,2013-02-17 05:53:00,
2013-02-17 01:03:00,23.2,18.5,29.68,NE,41,2.0,6.0,82,0.00,-SN,,0.00,WeatherDisplay:10.37,2013-02-17 06:03:00,
2013-02-17 01:13:00,22.9,17.4,29.71,North,358,2.0,10.0,79,0.00,-SN,,0.00,WeatherDisplay:10.37,2013-02-17 06:13:00,
2013-02-17 01:23:00,22.7,17.1,29.70,North,10,5.0,14.0,79,0.00,-SN,,0.00,WeatherDisplay:10.37,2013-02-17 06:23:00,
2013-02-17 01:33:00,22.1,16.3,29.69,NNE,22,5.0,12.0,78,0.00,-SN,,0.00,WeatherDisplay:10.37,2013-02-17 06:33:00,
2013-02-17 01:43:00,21.8,16.6,29.68,NNE,14,1.0,12.0,80,0.00,-SN,,0.00,WeatherDisplay:10.37,2013-02-17 06:43:00,
2013-02-17 01:53:00,21.7,16.2,29.67,NNW,337,3.0,10.0,79,0.00,-SN,,0.00,WeatherDisplay:10.37,2013-02-17 06:53:00,
2013-02-17 02:03:00,21.3,15.2,29.67,NNE,15,5.0,12.0,77,0.00,-SN,,0.00,WeatherDisplay:10.37,2013-02-17 07:03:00,
2013-02-17 02:13:00,21.0,15.2,29.66,North,349,7.0,17.0,78,0.00,-SN,,0.00,WeatherDisplay:10.37,2013-02-17 07:13:00,
2013-02-17 02:23:00,20.7,15.2,29.66,NNE,26,3.0,16.0,79,0.00,-SN,,0.00,WeatherDisplay:10.37,2013-02-17 07:23:00,
2013-02-17 02:33:00,20.6,15.5,29.66,NNE,22,1.0,9.0,80,0.00,-SN,,0.00,WeatherDisplay:10.37,2013-02-17 07:33:00,
2013-02-17 02:43:00,20.7,14.0,29.66,NE,34,5.0,12.0,75,0.00,-SN,,0.00,WeatherDisplay:10.37,2013-02-17 07:43:00,
2013-02-17 02:53:00,21.0,12.4,29.66,NNE,18,5.0,12.0,69,0.00,-SN,,0.00,WeatherDisplay:10.37,2013-02-17 07:53:00,
2013-02-17 03:03:00,21.3,11.0,29.66,North,360,5.0,12.0,64,0.00,-SN,,0.00,WeatherDisplay:10.37,2013-02-17 08:03:00,
2013-02-17 03:13:00,21.2,10.6,29.64,North,358,7.0,17.0,63,0.00,OVC,,0.00,WeatherDisplay:10.37,2013-02-17 08:13:00,
2013-02-17 03:23:00,20.4,11.8,29.62,North,349,5.0,20.0,69,0.00,OVC,,0.00,WeatherDisplay:10.37,2013-02-17 08:23:00,
2013-02-17 03:33:00,19.9,12.6,29.62,NNW,347,6.0,12.0,73,0.00,OVC,,0.00,WeatherDisplay:10.37,2013-02-17 08:33:00,
2013-02-17 03:43:00,19.3,13.0,29.63,North,4,6.0,15.0,76,0.00,-SN,,0.00,WeatherDisplay:10.37,2013-02-17 08:43:00,
2013-02-17 03:53:00,19.1,13.1,29.63,NNW,348,7.0,14.0,77,0.00,-SN,,0.00,WeatherDisplay:10.37,2013-02-17 08:53:00,
2013-02-17 04:03:00,19.0,13.3,29.63,NNW,340,10.0,15.0,78,0.00,-SN,,0.00,WeatherDisplay:10.37,2013-02-17 09:03:00,
2013-02-17 04:13:00,18.8,12.8,29.62,NNW,342,7.0,16.0,77,0.00,-SN,,0.00,WeatherDisplay:10.37,2013-02-17 09:13:00,
2013-02-17 04:23:00,18.8,12.5,29.61,North,350,6.0,16.0,76,0.00,-SN,,0.00,WeatherDisplay:10.37,2013-02-17 09:23:00,
2013-02-17 04:33:00,18.7,12.7,29.61,NNW,339,6.0,17.0,77,0.00,-SN,,0.00,WeatherDisplay:10.37,2013-02-17 09:33:00,
2013-02-17 04:43:00,18.3,12.9,29.60,NNW,343,2.0,13.0,79,0.00,-SN,,0.00,WeatherDisplay:10.37,2013-02-17 09:43:00,
2013-02-17 04:53:00,18.0,13.2,29.62,North,352,7.0,16.0,81,0.00,-SN,,0.00,WeatherDisplay:10.37,2013-02-17 09:53:00,
2013-02-17 05:13:00,17.1,13.9,29.61,NW,324,3.0,13.0,87,0.00,-SN,,0.00,WeatherDisplay:10.37,2013-02-17 10:13:00,
2013-02-17 05:23:00,16.9,14.2,29.59,NNW,347,6.0,12.0,89,0.00,-SN,,0.00,WeatherDisplay:10.37,2013-02-17 10:23:00,
2013-02-17 05:33:00,16.6,13.9,29.59,NNW,347,2.0,14.0,89,0.00,-SN,,0.00,WeatherDisplay:10.37,2013-02-17 10:33:00,
2013-02-17 05:43:00,16.5,13.8,29.59,NNW,346,2.0,12.0,89,0.00,-SN,,0.00,WeatherDisplay:10.37,2013-02-17 10:43:00,
2013-02-17 05:53:00,16.1,13.2,29.58,NNW,334,5.0,13.0,88,0.00,-SN,,0.00,WeatherDisplay:10.37,2013-02-17 10:53:00,
2013-02-17 06:03:00,15.8,12.6,29.58,NNW,345,6.0,16.0,87,0.00,-SN,,0.00,WeatherDisplay:10.37,2013-02-17 11:03:00,
2013-02-17 06:13:00,15.7,12.5,29.57,NNW,340,8.0,15.0,87,0.00,-SN,,0.00,WeatherDisplay:10.37,2013-02-17 11:13:00,
2013-02-17 06:23:00,15.5,12.1,29.55,North,354,3.0,15.0,86,0.00,-SN,,0.00,WeatherDisplay:10.37,2013-02-17 11:23:00,
2013-02-17 06:33:00,15.3,11.6,29.55,NNW,333,7.0,16.0,85,0.00,-SN,,0.00,WeatherDisplay:10.37,2013-02-17 11:33:00,
2013-02-17 06:43:00,15.3,11.6,29.55,NNW,338,6.0,16.0,85,0.00,-SN,,0.00,WeatherDisplay:10.37,2013-02-17 11:43:00,
2013-02-17 06:53:00,15.2,11.5,29.55,NNW,332,10.0,18.0,85,0.00,-SN,,0.00,WeatherDisplay:10.37,2013-02-17 11:53:00,
2013-02-17 07:03:00,15.2,11.5,29.55,NNW,328,8.0,14.0,85,0.00,-SN,,0.00,WeatherDisplay:10.37,2013-02-17 12:03:00,
2013-02-17 07:13:00,15.2,11.0,29.55,NNW,339,7.0,16.0,83,0.00,-SN,,0.00,WeatherDisplay:10.37,2013-02-17 12:13:00,
2013-02-17 07:23:00,15.0,10.5,29.53,NNW,338,6.0,18.0,82,0.00,-SN,,0.00,WeatherDisplay:10.37,2013-02-17 12:23:00,
2013-02-17 07:33:00,15.2,10.1,29.53,NNW,339,9.0,17.0,80,0.00,-SN,,0.00,WeatherDisplay:10.37,2013-02-17 12:33:00,
2013-02-17 07:43:00,15.3,10.5,29.53,NW,322,3.0,13.0,81,0.00,-SN,,0.00,WeatherDisplay:10.37,2013-02-17 12:43:00,
2013-02-17 07:53:00,15.3,10.0,29.52,NW,326,5.0,17.0,79,0.00,-SN,,0.00,WeatherDisplay:10.37,2013-02-17 12:53:00,
2013-02-17 08:03:00,15.3,9.7,29.52,NNW,328,6.0,16.0,78,0.00,-SN,,0.00,WeatherDisplay:10.37,2013-02-17 13:03:00,
2013-02-17 08:13:00,15.2,9.0,29.51,NW,326,3.0,17.0,76,0.00,-SN,,0.00,WeatherDisplay:10.37,2013-02-17 13:13:00,
2013-02-17 08:23:00,15.3,8.8,29.50,NW,314,7.0,20.0,75,0.00,-SN,,0.00,WeatherDisplay:10.37,2013-02-17 13:23:00,
2013-02-17 08:33:00,15.3,8.2,29.50,NW,312,8.0,16.0,73,0.00,-SN,,0.00,WeatherDisplay:10.37,2013-02-17 13:33:00,
2013-02-17 08:43:00,15.5,7.5,29.49,NW,320,9.0,16.0,70,0.00,-SN,,0.00,WeatherDisplay:10.37,2013-02-17 13:43:00,
2013-02-17 08:53:00,15.7,7.3,29.48,NW,325,5.0,20.0,69,0.00,-SN,,0.00,WeatherDisplay:10.37,2013-02-17 13:53:00,
2013-02-17 09:03:00,16.0,6.6,29.48,NW,319,10.0,25.0,66,0.00,-SN,,0.00,WeatherDisplay:10.37,2013-02-17 14:03:00,
2013-02-17 09:13:00,16.2,6.5,29.47,NW,318,10.0,20.0,65,0.00,-SN,,0.00,WeatherDisplay:10.37,2013-02-17 14:13:00,
2013-02-17 09:23:00,16.5,5.7,29.47,NW,323,12.0,23.0,62,0.00,-SN,,0.00,WeatherDisplay:10.37,2013-02-17 14:23:00,
2013-02-17 09:33:00,16.8,4.9,29.47,NNW,329,9.0,24.0,59,0.00,-SN,,0.00,WeatherDisplay:10.37,2013-02-17 14:33:00,
2013-02-17 09:43:00,17.3,5.4,29.45,NW,321,3.0,20.0,59,0.00,-SN,,0.00,WeatherDisplay:10.37,2013-02-17 14:43:00,
2013-02-17 09:53:00,17.9,4.4,29.45,WNW,302,9.0,23.0,55,0.00,-SN,,0.00,WeatherDisplay:10.37,2013-02-17 14:53:00,
2013-02-17 10:03:00,17.9,4.0,29.45,NW,316,10.0,20.0,54,0.00,-SN,,0.00,WeatherDisplay:10.37,2013-02-17 15:03:00,
2013-02-17 10:13:00,17.9,4.0,29.45,NNW,329,10.0,22.0,54,0.00,OVC,,0.00,WeatherDisplay:10.37,2013-02-17 15:13:00,
2013-02-17 10:23:00,18.2,3.9,29.45,WNW,295,10.0,22.0,53,0.00,OVC,,0.00,WeatherDisplay:10.37,2013-02-17 15:23:00,
2013-02-17 10:33:00,18.4,3.7,29.45,NW,316,7.0,16.0,52,0.00,OVC,,0.00,WeatherDisplay:10.37,2013-02-17 15:33:00,
2013-02-17 10:43:00,18.3,4.0,29.45,NW,320,7.0,22.0,53,0.00,OVC,,0.00,WeatherDisplay:10.37,2013-02-17 15:43:00,
2013-02-17 10:53:00,18.4,4.1,29.45,WNW,300,12.0,25.0,53,0.00,OVC,,0.00,WeatherDisplay:10.37,2013-02-17 15:53:00,
2013-02-17 11:03:00,18.5,4.2,29.45,NW,310,7.0,18.0,53,0.00,SCT,,0.00,WeatherDisplay:10.37,2013-02-17 16:03:00,
2013-02-17 11:13:00,18.7,4.4,29.46,NW,305,8.0,20.0,53,0.00,SCT,,0.00,WeatherDisplay:10.37,2013-02-17 16:13:00,
2013-02-17 11:23:00,18.3,4.0,29.46,WNW,298,8.0,20.0,53,0.00,SCT,,0.00,WeatherDisplay:10.37,2013-02-17 16:23:00,
2013-02-17 11:33:00,18.3,3.6,29.46,WNW,298,12.0,25.0,52,0.00,SCT,,0.00,WeatherDisplay:10.37,2013-02-17 16:33:00,
2013-02-17 11:43:00,18.3,3.6,29.46,NW,310,9.0,21.0,52,0.00,SCT,,0.00,WeatherDisplay:10.37,2013-02-17 16:43:00,
2013-02-17 11:53:00,18.7,3.5,29.45,NW,313,9.0,21.0,51,0.00,SCT,,0.00,WeatherDisplay:10.37,2013-02-17 16:53:00,
2013-02-17 12:03:00,18.7,3.5,29.45,NW,319,10.0,23.0,51,0.00,SCT,,0.00,WeatherDisplay:10.37,2013-02-17 17:03:00,
2013-02-17 12:13:00,18.7,3.1,29.45,NW,304,12.0,20.0,50,0.00,SCT,,0.00,WeatherDisplay:10.37,2013-02-17 17:13:00,
2013-02-17 12:23:00,18.5,3.4,29.45,NW,306,8.0,32.0,51,0.00,OVC,,0.00,WeatherDisplay:10.37,2013-02-17 17:23:00,
2013-02-17 12:33:00,18.3,3.2,29.45,NW,325,8.0,22.0,51,0.00,OVC,,0.00,WeatherDisplay:10.37,2013-02-17 17:33:00,
2013-02-17 12:43:00,18.6,3.1,29.45,WNW,292,16.0,29.0,50,0.00,BKN,,0.00,WeatherDisplay:10.37,2013-02-17 17:43:00,
2013-02-17 12:53:00,18.2,2.6,29.46,WNW,295,15.0,27.0,50,0.00,BKN,,0.00,WeatherDisplay:10.37,2013-02-17 17:53:00,
2013-02-17 13:03:00,18.0,2.5,29.46,NW,307,12.0,31.0,50,0.00,BKN,,0.00,WeatherDisplay:10.37,2013-02-17 18:03:00,
2013-02-17 13:13:00,18.5,2.9,29.46,NW,310,6.0,23.0,50,0.00,OVC,,0.00,WeatherDisplay:10.37,2013-02-17 18:13:00,
2013-02-17 13:23:00,18.5,2.5,29.47,WNW,300,13.0,24.0,49,0.00,OVC,,0.00,WeatherDisplay:10.37,2013-02-17 18:23:00,
2013-02-17 13:33:00,18.3,3.2,29.47,WNW,290,9.0,31.0,51,0.00,OVC,,0.00,WeatherDisplay:10.37,2013-02-17 18:33:00,
2013-02-17 13:43:00,18.3,1.9,29.47,WNW,294,9.0,37.0,48,0.00,OVC,,0.00,WeatherDisplay:10.37,2013-02-17 18:43:00,
2013-02-17 13:53:00,18.7,2.2,29.48,NW,305,9.0,27.0,48,0.00,OVC,,0.00,WeatherDisplay:10.37,2013-02-17 18:53:00,
2013-02-17 14:03:00,18.8,2.3,29.48,NW,308,7.0,28.0,48,0.00,OVC,,0.00,WeatherDisplay:10.37,2013-02-17 19:03:00,
2013-02-17 14:13:00,19.0,1.6,29.49,WNW,293,13.0,28.0,46,0.00,OVC,,0.00,WeatherDisplay:10.37,2013-02-17 19:13:00,
2013-02-17 14:23:00,19.1,2.1,29.49,NW,309,8.0,30.0,47,0.00,OVC,,0.00,WeatherDisplay:10.37,2013-02-17 19:23:00,
2013-02-17 14:33:00,19.1,1.7,29.49,NW,305,12.0,32.0,46,0.00,OVC,,0.00,WeatherDisplay:10.37,2013-02-17 19:33:00,
2013-02-17 14:43:00,19.4,2.0,29.49,WNW,293,8.0,27.0,46,0.00,OVC,,0.00,WeatherDisplay:10.37,2013-02-17 19:43:00,
2013-02-17 14:53:00,19.7,1.2,29.50,NW,304,8.0,33.0,44,0.00,OVC,,0.00,WeatherDisplay:10.37,2013-02-17 19:53:00,
2013-02-17 15:03:00,19.8,1.4,29.50,WNW,303,8.0,25.0,44,0.00,OVC,,0.00,WeatherDisplay:10.37,2013-02-17 20:03:00,
2013-02-17 15:13:00,19.9,1.5,29.50,West,275,10.0,25.0,44,0.00,OVC,,0.00,WeatherDisplay:10.37,2013-02-17 20:13:00,
2013-02-17 15:23:00,19.9,1.0,29.50,NW,306,12.0,23.0,43,0.00,OVC,,0.00,WeatherDisplay:10.37,2013-02-17 20:23:00,
2013-02-17 15:33:00,20.2,1.2,29.50,WNW,293,14.0,27.0,43,0.00,OVC,,0.00,WeatherDisplay:10.37,2013-02-17 20:33:00,
2013-02-17 15:43:00,20.4,1.4,29.51,WNW,287,10.0,27.0,43,0.00,OVC,,0.00,WeatherDisplay:10.37,2013-02-17 20:43:00,
2013-02-17 15:53:00,20.6,1.1,29.51,WNW,286,13.0,26.0,42,0.00,OVC,,0.00,WeatherDisplay:10.37,2013-02-17 20:53:00,
2013-02-17 16:03:00,20.7,1.2,29.51,WNW,289,6.0,25.0,42,0.00,OVC,,0.00,WeatherDisplay:10.37,2013-02-17 21:03:00,
2013-02-17 16:13:00,21.0,2.0,29.52,WNW,297,6.0,20.0,43,0.00,OVC,,0.00,WeatherDisplay:10.37,2013-02-17 21:13:00,
2013-02-17 16:23:00,21.0,0.9,29.52,WNW,290,9.0,20.0,41,0.00,OVC,,0.00,WeatherDisplay:10.37,2013-02-17 21:23:00,
2013-02-17 16:33:00,21.0,0.4,29.52,WNW,298,9.0,26.0,40,0.00,OVC,,0.00,WeatherDisplay:10.37,2013-02-17 21:33:00,
2013-02-17 16:43:00,21.2,0.1,29.53,WNW,286,9.0,21.0,39,0.00,OVC,,0.00,WeatherDisplay:10.37,2013-02-17 21:43:00,
2013-02-17 16:53:00,21.2,0.1,29.54,WNW,291,10.0,29.0,39,0.00,OVC,,0.00,WeatherDisplay:10.37,2013-02-17 21:53:00,
2013-02-17 17:03:00,21.0,-0.7,29.55,NW,305,12.0,21.0,38,0.00,OVC,,0.00,WeatherDisplay:10.37,2013-02-17 22:03:00,
2013-02-17 17:13:00,21.0,-0.1,29.55,West,277,15.0,24.0,39,0.00,OVC,,0.00,WeatherDisplay:10.37,2013-02-17 22:13:00,
2013-02-17 17:23:00,20.9,-1.3,29.56,WNW,302,14.0,26.0,37,0.00,OVC,,0.00,WeatherDisplay:10.37,2013-02-17 22:23:00,
2013-02-17 17:33:00,20.9,-0.2,29.56,WNW,292,5.0,25.0,39,0.00,OVC,,0.00,WeatherDisplay:10.37,2013-02-17 22:33:00,
2013-02-17 17:43:00,20.7,-0.4,29.57,WNW,291,12.0,24.0,39,0.00,OVC,,0.00,WeatherDisplay:10.37,2013-02-17 22:43:00,
2013-02-17 17:53:00,20.7,-0.9,29.58,West,269,7.0,24.0,38,0.00,OVC,,0.00,WeatherDisplay:10.37,2013-02-17 22:53:00,
2013-02-17 18:03:00,20.6,-0.5,29.58,NW,308,10.0,28.0,39,0.00,OVC,,0.00,WeatherDisplay:10.37,2013-02-17 23:03:00,
2013-02-17 18:13:00,20.4,-1.2,29.58,West,269,8.0,20.0,38,0.00,OVC,,0.00,WeatherDisplay:10.37,2013-02-17 23:13:00,
2013-02-17 18:23:00,20.2,-1.4,29.58,West,272,10.0,22.0,38,0.00,OVC,,0.00,WeatherDisplay:10.37,2013-02-17 23:23:00,
2013-02-17 18:33:00,20.1,-2.6,29.58,WNW,298,12.0,25.0,36,0.00,OVC,,0.00,WeatherDisplay:10.37,2013-02-17 23:33:00,
2013-02-17 18:43:00,19.9,-2.2,29.59,WNW,287,12.0,30.0,37,0.00,OVC,,0.00,WeatherDisplay:10.37,2013-02-17 23:43:00,
2013-02-17 18:53:00,19.8,-1.8,29.59,WNW,302,17.0,28.0,38,0.00,OVC,,0.00,WeatherDisplay:10.37,2013-02-17 23:53:00,
2013-02-17 19:03:00,19.8,-1.8,29.59,WNW,300,9.0,25.0,38,0.00,OVC,,0.00,WeatherDisplay:10.37,2013-02-18 00:03:00,
2013-02-17 19:13:00,19.6,-1.4,29.59,NW,307,13.0,25.0,39,0.00,OVC,,0.00,WeatherDisplay:10.37,2013-02-18 00:13:00,
2013-02-17 19:23:00,19.4,-1.0,29.60,WNW,295,8.0,24.0,40,0.00,OVC,,0.00,WeatherDisplay:10.37,2013-02-18 00:23:00,
2013-02-17 19:33:00,19.1,-1.3,29.60,WNW,284,9.0,20.0,40,0.00,OVC,,0.00,WeatherDisplay:10.37,2013-02-18 00:33:00,
2013-02-17 19:43:00,18.9,-1.5,29.60,WNW,286,10.0,26.0,40,0.00,OVC,,0.00,WeatherDisplay:10.37,2013-02-18 00:43:00,
2013-02-17 19:53:00,18.5,-1.3,29.60,West,281,6.0,24.0,41,0.00,OVC,,0.00,WeatherDisplay:10.37,2013-02-18 00:53:00,
2013-02-17 20:03:00,18.3,-1.0,29.60,WNW,298,8.0,26.0,42,0.00,OVC,,0.00,WeatherDisplay:10.37,2013-02-18 01:03:00,
2013-02-17 20:13:00,18.0,-1.3,29.61,West,268,13.0,27.0,42,0.00,OVC,,0.00,WeatherDisplay:10.37,2013-02-18 01:13:00,
2013-02-17 20:23:00,17.6,-0.6,29.61,NW,309,7.0,28.0,44,0.00,OVC,,0.00,WeatherDisplay:10.37,2013-02-18 01:23:00,
2013-02-17 20:33:00,16.7,-0.1,29.61,West,270,7.0,25.0,47,0.00,OVC,,0.00,WeatherDisplay:10.37,2013-02-18 01:33:00,
2013-02-17 20:43:00,16.0,0.2,29.62,West,280,9.0,26.0,49,0.00,OVC,,0.00,WeatherDisplay:10.37,2013-02-18 01:43:00,
2013-02-17 20:53:00,15.4,0.0,29.63,WNW,294,6.0,29.0,50,0.00,OVC,,0.00,WeatherDisplay:10.37,2013-02-18 01:53:00,
2013-02-17 21:03:00,15.0,-0.3,29.64,WNW,287,10.0,23.0,50,0.00,OVC,,0.00,WeatherDisplay:10.37,2013-02-18 02:03:00,
2013-02-17 21:13:00,14.9,0.0,29.64,WNW,301,10.0,20.0,51,0.00,OVC,,0.00,WeatherDisplay:10.37,2013-02-18 02:13:00,
2013-02-17 21:23:00,14.6,-0.3,29.65,West,281,12.0,21.0,51,0.00,OVC,,0.00,WeatherDisplay:10.37,2013-02-18 02:23:00,
2013-02-17 21:33:00,14.4,-0.9,29.65,WNW,291,5.0,20.0,50,0.00,OVC,,0.00,WeatherDisplay:10.37,2013-02-18 02:33:00,
2013-02-17 21:43:00,14.2,-1.1,29.66,WNW,290,13.0,22.0,50,0.00,OVC,,0.00,WeatherDisplay:10.37,2013-02-18 02:43:00,
2013-02-17 21:53:00,14.0,-1.3,29.67,WNW,285,13.0,22.0,50,0.00,OVC,,0.00,WeatherDisplay:10.37,2013-02-18 02:53:00,
2013-02-17 22:03:00,13.9,-1.3,29.67,WNW,284,9.0,24.0,50,0.00,OVC,,0.00,WeatherDisplay:10.37,2013-02-18 03:03:00,
2013-02-17 22:13:00,13.6,-1.6,29.67,WNW,287,8.0,20.0,50,0.00,OVC,,0.00,WeatherDisplay:10.37,2013-02-18 03:13:00,
2013-02-17 22:23:00,13.4,-2.2,29.68,WNW,287,12.0,26.0,49,0.00,OVC,,0.00,WeatherDisplay:10.37,2013-02-18 03:23:00,
2013-02-17 22:33:00,13.2,-2.0,29.69,WNW,303,7.0,17.0,50,0.00,OVC,,0.00,WeatherDisplay:10.37,2013-02-18 03:33:00,
2013-02-17 22:43:00,13.0,-2.2,29.69,WNW,296,12.0,22.0,50,0.00,OVC,,0.00,WeatherDisplay:10.37,2013-02-18 03:43:00,
2013-02-17 22:53:00,12.9,-2.3,29.70,NW,304,5.0,24.0,50,0.00,OVC,,0.00,WeatherDisplay:10.37,2013-02-18 03:53:00,
2013-02-17 23:03:00,12.8,-2.4,29.70,WNW,291,9.0,21.0,50,0.00,OVC,,0.00,WeatherDisplay:10.37,2013-02-18 04:03:00,
2013-02-17 23:13:00,12.6,-2.1,29.71,WNW,299,6.0,26.0,51,0.00,OVC,,0.00,WeatherDisplay:10.37,2013-02-18 04:13:00,
2013-02-17 23:23:00,12.4,-1.9,29.72,WNW,295,14.0,27.0,52,0.00,OVC,,0.00,WeatherDisplay:10.37,2013-02-18 04:23:00,
2013-02-17 23:33:00,12.3,-2.4,29.72,WNW,289,12.0,24.0,51,0.00,OVC,,0.00,WeatherDisplay:10.37,2013-02-18 04:33:00,
2013-02-17 23:43:00,12.1,-1.8,29.72,WNW,285,8.0,23.0,53,0.00,OVC,,0.00,WeatherDisplay:10.37,2013-02-18 04:43:00,
2013-02-17 23:53:00,11.9,-2.0,29.74,WNW,288,8.0,23.0,53,0.00,OVC,,0.00,WeatherDisplay:10.37,2013-02-18 04:53:00,